Location: D�derode
(51.8092°N, 10.1065°E)
Time: 05:58:55
(UTC+00:00)

TIMED - Pass Details

Date: 01 December 2020
Orbit: 602 x 605 km, 74.1° (Epoch: 23 January)

Event Time Altitude Azimuth Distance (km) Brightness Sun altitude
Rises 17:18:56 0° 205° (SSW) 2,842 8.5 -18.6°
Reaches altitude 10° 17:21:10 10° 207° (SSW) 1,944 7.6 -18.9°
Maximum altitude 17:25:31 82° 296° (WNW) 615 4.5 -19.6°
Enters shadow 17:27:41 29° 21° (NNE) 1,110 5.6 -19.9°
